DECAYED
Showing default

DRUMS TARGET-2, 58954 (Decayed)

Orbit data source: Space-Track

DRUMS TARGET-2, 58954 was a payload satellite owned by Kawasaki (JP) in LEO that was launched on Tue, 09 Nov 2021 UTC via an EPSILON launch vehicle from the Kagoshima Space Center University Of Tokyo (KSCUT). Payload-class satellites include a variety of spacecraft equipped with specific instruments for various scientific and technological missions. These include communications satellites like Starlink; space stations such as the ISS; scientific satellites like the Hubble; Earth observation satellites from companies like Planet Labs, Umbra, and HawkEye 360; GPS; miniature CubeSats for education and research; and military/defense satellites.

Not visible in the next 10 days
Identifier
58954, 2021-102N
Orbit
Decayed
Country
Flag of JPJP / JPN
Related business
Manufacturer
Kawasaki
Mission
Decayed Commercial Technology
Bus & Motor
DRUMS TARGET, Unknown motor
Mass
1 kg wet, 1 kg dry
Launch date (UTC)
2021-11-09 (4 years ago)
Launch vehicle
EPSILON
Launch site
Kagoshima Space Center University Of Tokyo (KSCUT)
Object type
Payload
Rocket body
Debris
Shape & HBR
Cyl, 0.1 m
Radar Cross Section
0.027 m², Small (<0.1 m²)

Expand to show TLE details & history
Last TLE update: 1 year ago

TLE from 1 year ago
0 DRUMS TARGET-2
1 58954U 21102N   25101.07463122  .11585597  24728-5  20747-2 0  9992
2 58954  97.3410 156.7531 0013213 259.7581 100.2225 16.32362654 71583
Epoch: 2025-04-11T01:47Z
TLE epoch observation values (Epoch: 2025-04-11T01:47:28.137Z)
Latitude
0.00001°
Longitude
-69.652°
Altitude
190.992 km
Speed
7.791 km/s
True Right ascension
10h 27m 00s
True Declination
0° 00' 00"
Sunlit
Object was in full shadow at epoch
Visualization orbit readout
Latitude
Unknown
Longitude
Unknown
Altitude
Unknown
Speed
Unknown
Apparent Right ascension
Unknown
Apparent Declination
Unknown
Sunlit
N/A
Visualization observer readout
Local Sidereal Time
19:30:38
Azimuth
Unknown
Elevation
Unknown
Doppler factor
Unknown
Orbital elements
Apogee altitude
191.682 km
Perigee altitude
174.344 km
Semi-major axis
6,561.15 km
Eccentricity
0.00132
Inclination
97.341°
RAAN
156.7531°
Arg. of periapsis
259.7581°
True anomaly
100.37146°
Mean anomaly
100.2225°
Eccentric anomaly
100.29699°
Mean motion
4.08388 °/min
Orbital period
88.15 mins
BSTAR
0.0020747
Loading maneuver chart data...
Computing Atmospheric mass density...
Loading historical data...
Loading historical data...
Loading historical data...
Loading historical data...
Loading historical data...
Loading historical data...
Loading historical data...

Documentation

Showing up to 5 results
|